This is the latest recevied weather packets stored in our database for station/object K0SNA. If no packets are shown the sender has not sent any weather packets the latest 10 day(s).
| Time | Temp. | Humidity | Pressure | Rain* | Wind** | Luminosity | Snow |
|---|---|---|---|---|---|---|---|
| 1777657251 | 10° C | 36% | 1019.7 hPa | 0 mm | - | 837 W/m² | - |
| 1777656948 | 10° C | 35% | 1019.8 hPa | 0 mm | - | 755 W/m² | - |
| 1777656644 | 9.44° C | 36% | 1019.6 hPa | 0 mm | - | 793 W/m² | - |
| 1777656339 | 10.56° C | 36% | 1019.4 hPa | 0 mm | - | 839 W/m² | - |
| 1777656035 | 10° C | 37% | 1019.5 hPa | 0 mm | - | 801 W/m² | - |
| 1777655732 | 10° C | 37% | 1019.4 hPa | 0 mm | - | 806 W/m² | - |
| 1777655428 | 9.44° C | 37% | 1019.5 hPa | 0 mm | - | 726 W/m² | - |
| 1777655125 | 9.44° C | 40% | 1019.6 hPa | 0 mm | - | 754 W/m² | - |
| 1777654823 | 9.44° C | 38% | 1019.6 hPa | 0 mm | - | 717 W/m² | - |
| 1777654521 | 9.44° C | 39% | 1019.6 hPa | 0 mm | - | 720 W/m² | - |
| 1777654218 | 8.89° C | 38% | 1019.5 hPa | 0 mm | - | 690 W/m² | - |
| 1777653915 | 8.89° C | 41% | 1019.7 hPa | 0 mm | - | 388 W/m² | - |
| 1777653612 | 8.89° C | 39% | 1019.6 hPa | 0 mm | - | 442 W/m² | - |
| 1777653309 | 8.89° C | 40% | 1019.7 hPa | 0 mm | - | 727 W/m² | - |
| 1777653005 | 8.89° C | 38% | 1019.7 hPa | 0 mm | - | 709 W/m² | - |
| 1777652702 | 8.33° C | 39% | 1019.7 hPa | 0 mm | - | 732 W/m² | - |
| 1777652398 | 8.33° C | 41% | 1019.7 hPa | 0 mm | - | 760 W/m² | - |
| 1777652096 | 8.33° C | 40% | 1019.9 hPa | 0 mm | - | 204 W/m² | - |
| 1777651792 | 9.44° C | 40% | 1019.6 hPa | 0 mm | - | 198 W/m² | - |
| 1777651489 | 8.33° C | 39% | 1019.5 hPa | 0 mm | - | 675 W/m² | - |
| 1777651186 | 8.33° C | 40% | 1019.7 hPa | 0 mm | - | 739 W/m² | - |
| 1777650883 | 8.89° C | 38% | 1019.6 hPa | 0 mm | - | 484 W/m² | - |
| 1777650580 | 8.89° C | 41% | 1019.5 hPa | 0 mm | - | 634 W/m² | - |
| 1777650277 | 8.33° C | 41% | 1019.6 hPa | 0 mm | - | 647 W/m² | - |
| 1777649974 | 7.78° C | 43% | 1019.7 hPa | 0 mm | - | 594 W/m² | - |
* Rain latest hour (hover to see other rain measurements)
** Current wind speed in m/s (hover to see current wind gust speed)